7 * 24
多渠道服务支持
IRIDIUM 176 是 IRIDIUM 卫星星座中的一颗通信卫星,属于美国 IRIDIUM 公司运营的第二代卫星网络(Iridium NEXT)。该卫星于2017年发射,运行在低地球轨道,提供全球范围的语音和数据通信服务。IRIDIUM 176 采用先进通信技术,支持抗干扰、高可靠性的连接,广泛应用于航空、航海、应急响应和远程地区通信。该星座由 66 颗卫星组成,IRIDIUM 176 在其中发挥关键作用,确保全球无缝覆盖和持续服务。
美国
(US)
| 数据来源 | 国际轨道数据 |
| 星历时间: | 2025-10-28T18:58:11+0800 20小时前 查看轨道信息 |
| 半长轴: | 7032.042km |
| 偏心率: | 0.0003908 |
| 轨道倾角: | 86.608° |
| 近地点辐角 | 112.974° |
| 升交点赤经 | 90.456° |
| 平近点角 | 247.189° |
| 近地点: | 651.158km |
| 远地点: | 656.656km |
| 周期: | 97.810分钟 |
| 每日圈数: | 14.722468 |